Change the Weather History Date:

Monday, June 9, 2014

  Actual Average (KPBG) Record (KPBG)
Temperature  
Mean Temperature 74 °F 63 °F  
Max Temperature 85 °F 74 °F 92 °F (1959)
Min Temperature 62 °F 52 °F 36 °F (1980)
Cooling Degree Days 8 2  
Month to date cooling degree days 11  
Year to date cooling degree days 19  
Since 1 June cooling degree days 11  
Growing Degree Days 24 (Base 50)    
Moisture  
Dew Point 56 °F    
Average Humidity 57    
Maximum Humidity 84    
Minimum Humidity 31    
Precipitation  
Precipitation 0.00 in - 0.73 in (1952)
Month to date precipitation  
Year to date precipitation  
Sea Level Pressure  
Sea Level Pressure 29.93 in    
Wind  
Wind Speed 3 mph (NNE)    
Max Wind Speed 10 mph    
Max Gust Speed -    
Visibility 10 miles    
Events      
T = Trace of Precipitation, MM = Missing Value Source: NWS Daily Summary

Daily Weather History Graph

Daily Weather History Graph

Search for Another Location

Airport or City:

Trip Planner

Search our weather history database for the weather conditions in past years. The results will help you decide how hot, cold, wet, or windy it might be!

Date:

Astronomy

Jun. 09, 2014 Rise Set
Actual Time 5:06 AM EDT 8:37 PM EDT
Civil Twilight 4:29 AM EDT 9:14 PM EDT
Nautical Twilight 3:40 AM EDT 10:03 PM EDT
Astronomical Twilight 2:36 AM EDT 11:07 PM EDT
Moon 4:47 PM EDT (6/9) 2:41 AM EDT (6/9)
Length of Visible Light 16h 45m
Length of Day
15h 31m
Waxing Gibbous, 85% of the Moon is Illuminated
Jun 9
Waxing Gibbous
Jun 13
Full
Jun 19
Last Quarter
Jun 27
New
Jul 5
First Quarter

Hourly Weather History & Observations

Time (EDT) Temp. Heat Index Dew Point Humidity Pressure Visibility Wind Dir Wind Speed Gust Speed Precip Events Conditions
12:15 AM 68.5 °F - 59.4 °F 72% 29.88 in 10.0 mi SSE 3.5 mph - N/A   Scattered Clouds
12:35 AM 66.2 °F - 58.1 °F 75% 29.88 in 10.0 mi Calm Calm - N/A   Scattered Clouds
12:55 AM 66.2 °F - 58.5 °F 76% 29.88 in 10.0 mi Calm Calm - N/A   Scattered Clouds
1:15 AM 66.2 °F - 57.7 °F 74% 29.88 in 7.0 mi SE 3.5 mph - N/A   Clear
1:35 AM 66.2 °F - 57.7 °F 74% 29.88 in 10.0 mi Calm Calm - N/A   Clear
1:55 AM 66.2 °F - 57.7 °F 74% 29.88 in 10.0 mi Calm Calm - N/A   Clear
2:15 AM 64.4 °F - 57.2 °F 77% 29.87 in 10.0 mi SE 3.5 mph - N/A   Clear
2:35 AM 64.8 °F - 57.2 °F 76% 29.86 in 10.0 mi East 3.5 mph - N/A   Clear
2:55 AM 66.0 °F - 57.6 °F 74% 29.85 in 10.0 mi SE 3.5 mph - N/A   Clear
3:15 AM 64.2 °F - 56.8 °F 77% 29.87 in 10.0 mi SSE 5.8 mph - N/A   Clear
3:35 AM 63.7 °F - 56.5 °F 77% 29.87 in 10.0 mi SE 3.5 mph - N/A   Clear
3:55 AM 63.5 °F - 57.2 °F 80% 29.88 in 10.0 mi Calm Calm - N/A   Clear
4:15 AM 63.1 °F - 57.7 °F 83% 29.88 in 10.0 mi Calm Calm - N/A   Clear
4:35 AM 63.5 °F - 58.1 °F 83% 29.88 in 10.0 mi Calm Calm - N/A   Clear
4:55 AM 62.6 °F - 57.6 °F 84% 29.88 in 10.0 mi Calm Calm - N/A   Clear
5:15 AM 62.6 °F - 57.6 °F 84% 29.88 in 10.0 mi SE 3.5 mph - N/A   Clear
5:35 AM 63.5 °F - 58.1 °F 83% 29.90 in 10.0 mi SE 3.5 mph - N/A   Clear
5:55 AM 63.5 °F - 58.1 °F 83% 29.91 in 10.0 mi Calm Calm - N/A   Clear
6:15 AM 63.5 °F - 58.1 °F 83% 29.92 in 10.0 mi Calm Calm - N/A   Clear
6:35 AM 64.2 °F - 58.5 °F 82% 29.93 in 10.0 mi Calm Calm - N/A   Clear
6:55 AM 66.2 °F - 59.2 °F 78% 29.94 in 10.0 mi Calm Calm - N/A   Scattered Clouds
7:15 AM 66.2 °F - 58.6 °F 77% 29.94 in 10.0 mi Calm Calm - N/A   Mostly Cloudy
7:35 AM 67.3 °F - 59.7 °F 77% 29.95 in 10.0 mi Calm Calm - N/A   Mostly Cloudy
7:55 AM 68.7 °F - 60.6 °F 75% 29.95 in 10.0 mi Calm Calm - N/A   Scattered Clouds
8:15 AM 71.1 °F - 63.0 °F 75% 29.96 in 10.0 mi Calm Calm - N/A   Clear
8:35 AM 71.1 °F - 59.5 °F 67% 29.97 in 10.0 mi North 4.6 mph - N/A   Scattered Clouds
8:55 AM 71.1 °F - 57.9 °F 63% 29.97 in 10.0 mi NNE 4.6 mph - N/A   Mostly Cloudy
9:15 AM 72.1 °F - 58.3 °F 62% 29.97 in 10.0 mi North 4.6 mph - N/A   Scattered Clouds
9:35 AM 72.9 °F - 58.6 °F 61% 29.97 in 10.0 mi NNE 10.4 mph - N/A   Scattered Clouds
9:55 AM 76.1 °F - 60.3 °F 58% 29.97 in 10.0 mi NNE 6.9 mph - N/A   Clear
10:15 AM 76.1 °F - 59.7 °F 57% 29.97 in 10.0 mi NNE 3.5 mph - N/A   Clear
10:35 AM 77.0 °F - 59.2 °F 54% 29.97 in 10.0 mi North 6.9 mph - N/A   Clear
10:55 AM 78.6 °F - 60.6 °F 54% 29.97 in 10.0 mi North 5.8 mph - N/A   Clear
11:15 AM 78.8 °F - 61.0 °F 54% 29.97 in 10.0 mi NW 3.5 mph - N/A   Clear
11:35 AM 78.4 °F - 61.0 °F 55% 29.97 in 10.0 mi NW 8.1 mph - N/A   Clear
11:55 AM 78.8 °F - 60.1 °F 53% 29.96 in 10.0 mi North 8.1 mph - N/A   Clear
12:35 PM 81.1 °F 81.8 °F 60.4 °F 49% 29.95 in 10.0 mi North 4.6 mph - N/A   Clear
12:55 PM 81.1 °F 81.6 °F 59.5 °F 48% 29.95 in 10.0 mi NNE 4.6 mph - N/A   Clear
1:15 PM 81.7 °F 81.9 °F 59.0 °F 46% 29.95 in 10.0 mi NW 6.9 mph - N/A   Clear
1:35 PM 81.9 °F 82.1 °F 59.4 °F 46% 29.95 in 10.0 mi NNW 6.9 mph - N/A   Clear
1:55 PM 82.4 °F 82.3 °F 58.6 °F 44% 29.95 in 10.0 mi NW 4.6 mph - N/A   Clear
2:15 PM 82.4 °F 82.3 °F 58.5 °F 44% 29.95 in 10.0 mi NNW 6.9 mph - N/A   Clear
2:35 PM 83.3 °F 82.9 °F 58.1 °F 42% 29.95 in 10.0 mi North 5.8 mph - N/A   Clear
3:35 PM 83.7 °F 83.0 °F 56.8 °F 40% 29.93 in 10.0 mi NW 5.8 mph - N/A   Clear
3:55 PM 85.1 °F 83.9 °F 56.1 °F 37% 29.92 in 10.0 mi NNW 5.8 mph - N/A   Clear
4:15 PM 84.9 °F 83.6 °F 55.4 °F 36% 29.92 in 10.0 mi North 8.1 mph - N/A   Clear
4:35 PM 85.1 °F 83.6 °F 54.3 °F 35% 29.92 in 10.0 mi North 5.8 mph - N/A   Clear
5:15 PM 84.7 °F - 52.2 °F 32% 29.92 in 10.0 mi NE 6.9 mph - N/A   Clear
5:35 PM 84.2 °F 82.6 °F 53.2 °F 34% 29.92 in 10.0 mi North 8.1 mph - N/A   Clear
5:55 PM 83.7 °F 82.3 °F 53.2 °F 35% 29.92 in 10.0 mi North 6.9 mph - N/A   Clear
6:15 PM 83.3 °F 82.1 °F 54.0 °F 36% 29.92 in 10.0 mi NNE 6.9 mph - N/A   Clear
6:35 PM 81.7 °F 81.0 °F 53.6 °F 38% 29.92 in 10.0 mi North 8.1 mph - N/A   Clear
6:55 PM 81.1 °F 80.9 °F 55.0 °F 41% 29.92 in 10.0 mi North 6.9 mph - N/A   Clear
7:15 PM 80.2 °F 80.2 °F 54.9 °F 41% 29.93 in 10.0 mi NNE 5.8 mph - N/A   Clear
7:35 PM 78.8 °F - 54.5 °F 43% 29.93 in 10.0 mi NNE 4.6 mph - N/A   Clear
7:55 PM 78.8 °F - 55.8 °F 45% 29.93 in 10.0 mi North 3.5 mph - N/A   Clear
8:15 PM 76.1 °F - 54.7 °F 47% 29.93 in 10.0 mi North 4.6 mph - N/A   Clear
8:35 PM 76.1 °F - 54.3 °F 47% 29.93 in 10.0 mi North 3.5 mph - N/A   Mostly Cloudy
8:55 PM 76.1 °F - 53.2 °F 45% 29.94 in 10.0 mi North 4.6 mph - N/A   Mostly Cloudy
9:15 PM 76.1 °F - 52.9 °F 44% 29.94 in 10.0 mi NNE 5.8 mph - N/A   Mostly Cloudy
9:35 PM 75.6 °F - 50.9 °F 42% 29.94 in 10.0 mi NNE 5.8 mph - N/A   Scattered Clouds
9:55 PM 73.9 °F - 46.9 °F 38% 29.94 in 10.0 mi NNE 6.9 mph - N/A   Clear
10:15 PM 73.6 °F - 44.8 °F 36% 29.94 in 10.0 mi NNE 6.9 mph - N/A   Clear
10:35 PM 76.1 °F - 43.3 °F 31% 29.95 in 10.0 mi NNE 5.8 mph - N/A   Scattered Clouds
10:55 PM 76.1 °F - 45.5 °F 34% 29.96 in 10.0 mi NNE 3.5 mph - N/A   Overcast
11:15 PM 73.6 °F - 46.4 °F 38% 29.95 in 10.0 mi ENE 3.5 mph - N/A   Overcast
11:35 PM 72.5 °F - 47.1 °F 40% 29.95 in 10.0 mi Calm Calm - N/A   Scattered Clouds
11:55 PM 71.1 °F - 48.6 °F 45% 29.95 in 10.0 mi ENE 3.5 mph - N/A   Scattered Clouds